Regional Weather Roundup
Issued by NWS Mobile, AL

Home | Current Version | Previous Version | Text Only | Print | Product List | Glossary On
Versions: 1 2 3 4 5 6 7 8 9 10 11 12 13 14 15 16 17 18 19 20 21 22 23 24 25 26 27 28 29 30 31 32 33 34 35 36 37 38 39 40 41 42 43 44 45 46 47 48 49 50
000
ASUS44 KMOB 051612
RWRMOB
REGIONAL WEATHER ROUNDUP
NATIONAL WEATHER SERVICE MOBILE AL
1000 AM CST THU MAR 05 2015

NOTE: "FAIR" INDICATES FEW OR NO CLOUDS BELOW 12,000 FEET WITH NO
      SIGNIFICANT WEATHER AND/OR OBSTRUCTIONS TO VISIBILITY.

  * THESE STATIONS ARE PART OF THE UNIVERSITY OF SOUTH ALABAMA
    MESONET AND ARE NOT UNDER NWS OR FAA QUALITY CONTROL.

ALZ061>064-051700-
COASTAL ALABAMA

CITY           SKY/WX    TMP DP  RH WIND       PRES   REMARKS
MOBILE REG APT PTSUNNY   44  39  82 N18       30.15F
BROOKLEY FIELD CLOUDY    47  42  83 N15       30.16R
USA CAMPUS*      N/A     48  43  81 VRB9      30.15S
DOG RIVER*     NOT AVBL


CITY           SKY/WX    TMP DP  RH WIND       PRES   REMARKS
MOUNT VERNON*    N/A     41  36  81 NE3       30.20F
SARALAND*      NOT AVBL
BAY MINETTE*   NOT AVBL
LOXLEY*          N/A     45  43  93 N24       30.15R
ROBERTSDALE*     N/A     46  45  93 VRB18     30.15R
FAIRHOPE*      NOT AVBL
ELBERTA*         N/A     48  46  93 NW15      30.11R
FOLEY*         NOT AVBL
GRAND BAY*       N/A     48  43  81 NW10      30.13S
DAUPHIN ISLND* NOT AVBL
BON SCOUR NWR* NOT AVBL
GULF SHORES    CLOUDY    50  48  93 N14G22    30.10R

$$

ALZ051>060-051700-
INTERIOR SOUTHWEST AND SOUTH CENTRAL ALABAMA

CITY           SKY/WX    TMP DP  RH WIND       PRES   REMARKS
GREENVILLE     CLOUDY    43  39  86 NW12      30.14R
EVERGREEN      CLOUDY    43  39  86 N15G21    30.17R
CASTLEBERRY*   NOT AVBL
ATMORE*          N/A     41  41 100 NW15      30.17R
DIXIE*         NOT AVBL
ANDALUSIA/OPP  LGT RAIN  50  45  83 N21G26    30.13
ANDALUSIA*       N/A     46  46 100 NW20      30.12R
FLORALA APT    PTSUNNY   52  50  93 N13G26    30.11R
FLORALA*         N/A     59  55  88 W13       30.03R

$$

FLZ001>006-051700-
WESTERN FLORIDA PANHANDLE

CITY           SKY/WX    TMP DP  RH WIND       PRES   REMARKS
PENSACOLA      RAIN      50  48  93 NW22G28   30.10R FOG
NAS PENSACOLA  LGT RAIN  51  50  96 NW21G31   30.09
MILTON         CLOUDY    48  46  93 N16G29    30.11
WHTNG S FIELD  LGT RAIN  50  47  89 NW21G32   30.11R


CITY           SKY/WX    TMP DP  RH WIND       PRES   REMARKS
WALNUT HILL*   NOT AVBL
JAY*             N/A     45  41  87 N22       30.15R
DUKE FIELD     HVY RAIN  72  70  94 W12       30.04R VSB 1
CRESTVIEW      RAIN      55  53  93 NW20G37   30.10R FOG
VALPARAISO     DRIZZLE   68  68  99 S10       30.02R FOG
DESTIN         LGT RAIN  69  66  90 S7        30.02S

$$

MSZ076-079-051700-
INTERIOR SOUTHEAST MISSISSIPPI

CITY           SKY/WX    TMP DP  RH WIND       PRES   REMARKS
LEAKESVILLE*     N/A     37  37 100 VRB2      30.21S
AGRICOLA*      NOT AVBL

$$

MARINE OBSERVATIONS

STATION/POSITION TIME  TEMP    WIND        PRES    WAVE
                       AIR SEA DIR/SP/G            HT/PER
                 (UTC) (F)     (DEG/KT/KT) (MB)    (FT/S)
E DAUPHIN ISLAND NOT AVBL
12 S ORANGE BCH  NOT AVBL

$$

SELECTED LOCATIONS ACROSS THE REGION

CITY           SKY/WX    TMP DP  RH WIND       PRES   REMARKS
NEW ORLEANS    CLOUDY    42  38  85 N21G29    30.22R
GULFPORT       LGT RAIN  45  38  76 N17G28    30.15S
PASCAGOULA AP  PTSUNNY   48  40  73 N22       30.13F
PASCAGOULA*    NOT AVBL
HATTIESBURG    CLOUDY    40  37  89 N9G18     30.25R
LAUREL         CLOUDY    37  34  87 N14G22    30.25R
MERIDIAN       CLOUDY    36  33  89 NW17G24   30.27R
JACKSON        LGTSLEET  30  27  88 NW15      30.37R FOG     WCI  19
MONTGOMERY     CLOUDY    43  38  82 NW13G20   30.18R
TROY           CLOUDY    46  43  89 NW23G33   30.13R
KINSTON*       NOT AVBL
GENEVA*        NOT AVBL
ASHFORD*         N/A     46  46 100 NW20      30.12R
DOTHAN         CLOUDY    76  67  73 SW13G20   30.05R
PANAMA CITY    CLOUDY    74  70  87 S17G23    30.04R

$$



USA.gov is the U.S. government's official web portal to all federal, state and local government web resources and services.